APRIZESAT 2 1 28366U 04025A 26255.25866789 .00000058 00000+0 31293-4 0 9991 2 28366 98.1122 56.3590 0105227 347.9745 11.8933 14.38066565164150 SAUDICOMSAT 1 1 28369U 04025D 26255.25372790 .00000205 00000+0 58067-4 0 9990 2 28369 98.5792 267.7464 0033221 115.8920 244.5708 14.55524474176794 SAUDICOMSAT 2 1 28370U 04025E 26255.27909922 .00000173 00000+0 56488-4 0 9996 2 28370 98.6651 269.9913 0055482 356.9997 3.0856 14.50023268172720 APRIZESAT 1 1 28372U 04025G 26255.27180608 .00000112 00000+0 39767-4 0 9994 2 28372 98.6322 268.3779 0043405 249.9361 109.7159 14.51816834174540 NANOSAT-1 1 28493U 04049B 26255.09965136 .00000684 00000+0 97058-4 0 9992 2 28493 98.2403 33.9557 0004453 30.2718 329.8750 14.80304213168301 SAUDICOMSAT 7 1 31119U 07012C 26254.92183545 .00000363 00000+0 74296-4 0 9994 2 31119 98.3887 230.8776 0054336 285.1796 74.3401 14.66197776 35148 SAUDICOMSAT 6 1 31121U 07012E 26255.17908000 .00000406 00000+0 86986-4 0 9993 2 31121 98.4207 224.3612 0072791 56.5543 304.2591 14.62628284 32905 SAUDICOMSAT 5 1 31124U 07012H 26255.18284562 .00000365 00000+0 71656-4 0 9999 2 31124 98.3598 231.8762 0046539 210.6104 149.2384 14.68253253 36363 SAUDICOMSAT 3 1 31125U 07012J 26254.92445937 .00000458 00000+0 82880-4 0 9990 2 31125 98.3251 232.1536 0039893 136.2763 224.1614 14.70813454 37573 SAUDICOMSAT 4 1 31127U 07012L 26254.92223077 .00000455 00000+0 93222-4 0 9990 2 31127 98.4093 229.3075 0063113 348.6856 11.2923 14.64591046 33982 APRIZESAT 4 1 35684U 09041D 26255.17364091 .00000445 00000+0 59606-4 0 9993 2 35684 98.1350 332.2012 0044040 40.8709 319.5793 14.83986662924260 APRIZESAT 3 1 35686U 09041F 26255.03074028 .00000922 00000+0 84057-4 0 9996 2 35686 98.2178 52.4925 0062061 139.6292 220.9559 14.96444580929365 S-NET D 1 43186U 18014G 26254.73778654 .00003699 00000+0 18854-3 0 9997 2 43186 97.5260 158.9828 0009886 80.4562 279.7788 15.17355487471882 S-NET B 1 43187U 18014H 26255.14668371 .00003722 00000+0 18983-3 0 9998 2 43187 97.5264 159.3779 0010431 75.2351 285.0038 15.17325725471940 S-NET A 1 43188U 18014J 26254.60429973 .00003761 00000+0 19155-3 0 9997 2 43188 97.5276 159.0647 0010356 77.4729 282.7662 15.17363167471864 S-NET C 1 43189U 18014K 26254.68945611 .00003882 00000+0 19785-3 0 9991 2 43189 97.5291 159.2370 0011614 70.5531 289.6956 15.17312752470427 SALSAT 1 46495U 20068K 26254.97802254 .00005968 00000+0 20261-3 0 9991 2 46495 97.8880 263.4175 0009469 9.1845 350.9566 15.30885844328635 OOV-CUBE (TUBSAT-30) 1 60240U 24128F 26255.07927958 .00001120 00000+0 97362-4 0 9990 2 60240 61.9933 282.5109 0032426 153.9439 206.3293 15.03087611119179 LPNTSAT-001 (IOD-1) 1 68408U 26065A 26255.11306140 .00001986 00000+0 98065-4 0 9996 2 68408 97.3868 133.7386 0017917 63.7198 296.5875 15.18901366 25457 CHUANG XIN 26 (CX-26) 1 69972U 26158A 26254.60865079 -.00000185 00000+0 -10643-4 0 9998 2 69972 49.9848 33.8907 0005187 148.4258 211.6968 14.25129358 9035